Tracking 20942 objects as of 11-Jul-2020
HD Live streaming from Space Station
objects crossing your sky now

THORAD DELTA 1 DEB

Track THORAD DELTA 1 DEB now!
10-day predictions


NORAD ID: 8180
Int'l Code: 1974-089AW
Perigee: 1,427.5 km
Apogee: 1,601.5 km
Inclination: 100.9 °
Period: 116.1 minutes
Semi major axis: 7885 km
RCS: 0.1407 m2 (medium)
Launch date: November 15, 1974
Source: United States (US)
Launch site: AIR FORCE WESTERN TEST RANGE (AFWTR)

Note: This is SATELLITE DEBRIS
aabbcc
Your satellite tracking list
Your tracking list is empty




NASA's NSSDC Master Catalog

Two Line Element Set (TLE):
1  8180U 74089AW  20192.78148245  .00000171  00000-0  15401-2 0  9990
2  8180 100.8954 111.6698 0110323  37.1679  22.8853 12.39824053 64769
Source of the keplerian elements: AFSPC